Location: Paderno d�Adda
(45.6667°N, 9.4333°E)
Time: 14:26:40
(UTC+00:00)

CSL-04 Rocket - Pass Details

Date: 19 September 2020
Orbit: 806 x 860 km, 98.9° (Epoch: 30 October)

Event Time Altitude Azimuth Distance (km) Brightness Sun altitude
Rises 18:08:10 0° 160° (SSE) 3,355 6.5 -8.3°
Reaches altitude 10° 18:10:29 10° 160° (SSE) 2,433 5.8 -8.7°
Maximum altitude 18:15:53 82° 74° (ENE) 855 3.7 -9.6°
Drops below altitude 10° 18:21:25 10° 347° (NNW) 2,485 6.5 -10.6°
Sets 18:23:48 0° 347° (NNW) 3,431 7.2 -11.0°
